Location: Unspecified
(41.1637°N, 24.2901°E)
Time: 15:19:25
(UTC+01:00)

ISS - Pass Details

Date: 20 February 2024
Orbit: 414 x 422 km, 51.6° (Epoch: 04 March)

Event Time Altitude Azimuth Distance (km) Brightness Sun altitude
Exits shadow 03:42:53 19° 80° (E) 1,060 -1.0 -28.6°
Drops below altitude 10° 03:44:08 10° 69° (ENE) 1,510 0.0 -28.4°
Sets 03:46:27 0° 60° (ENE) 2,431 1.2 -28.0°
